When you browse on this site, cookies collect data to enhance your experience and personalize the content and advertising you see.
Visit our Privacy Policy to learn more. By continuing to use the site, you agree to this use of cookies and data.
  • In United Kingdom
  • List of Countries
  • For 7 days
  • Water Temperature
  • Weather Map
  • Weather Widgets
  • user-avatar
    Login

    Hourly Weather Soma Bey

    Today, 16 September, Monday

    Time Temperature Precipitation Wind Pressure Humidity
    00:00 +26°C° 0 mm 2 mps 746 mmHg 45%
    01:00 +26°C° 0 mm 2 mps 746 mmHg 45%
    02:00 +26°C° 0 mm 2 mps 746 mmHg 45%
    03:00 +25°C° 0 mm 3 mps 746 mmHg 46%
    04:00 +25°C° 0 mm 3 mps 746 mmHg 47%
    05:00 +25°C° 0 mm 3 mps 746 mmHg 49%
    06:00 +27°C° 0 mm 4 mps 746 mmHg 44%
    07:00 +29°C° 0 mm 4 mps 747 mmHg 39%
    08:00 +33°C° 0 mm 5 mps 747 mmHg 34%
    09:00 +34°C° 0 mm 5 mps 747 mmHg 31%
    10:00 +36°C° 0 mm 6 mps 747 mmHg 28%
    11:00 +38°C° 0 mm 6 mps 747 mmHg 25%
    12:00 +38°C° 0 mm 6 mps 747 mmHg 26%
    13:00 +37°C° 0 mm 5 mps 746 mmHg 28%
    14:00 +37°C° 0 mm 5 mps 746 mmHg 30%
    15:00 +36°C° 0 mm 4 mps 745 mmHg 32%
    16:00 +35°C° 0 mm 3 mps 745 mmHg 34%
    17:00 +34°C° 0 mm 2 mps 745 mmHg 36%
    18:00 +31°C° 0 mm 2 mps 746 mmHg 41%
    19:00 +29°C° 0 mm 1 mps 746 mmHg 46%
    20:00 +27°C° 0 mm 1 mps 746 mmHg 51%
    21:00 +27°C° 0 mm 1 mps 746 mmHg 50%
    22:00 +27°C° 0 mm 2 mps 746 mmHg 49%
    23:00 +27°C° 0 mm 2 mps 746 mmHg 48%

    Tomorrow, 17 September, Tuesday

    Time Temperature Precipitation Wind Pressure Humidity
    00:00 +27°C° 0 mm 2 mps 746 mmHg 45%
    01:00 +27°C° 0 mm 2 mps 746 mmHg 43%
    02:00 +27°C° 0 mm 2 mps 745 mmHg 41%
    03:00 +27°C° 0 mm 3 mps 746 mmHg 41%
    04:00 +26°C° 0 mm 4 mps 746 mmHg 41%
    05:00 +26°C° 0 mm 4 mps 746 mmHg 41%
    06:00 +28°C° 0 mm 5 mps 746 mmHg 36%
    07:00 +32°C° 0 mm 5 mps 747 mmHg 31%
    08:00 +34°C° 0 mm 6 mps 747 mmHg 27%
    09:00 +36°C° 0 mm 6 mps 747 mmHg 26%
    10:00 +38°C° 0 mm 6 mps 747 mmHg 24%
    11:00 +39°C° 0 mm 6 mps 747 mmHg 23%
    12:00 +39°C° 0 mm 6 mps 746 mmHg 25%
    13:00 +39°C° 0 mm 6 mps 746 mmHg 27%
    14:00 +39°C° 0 mm 6 mps 745 mmHg 30%
    15:00 +38°C° 0 mm 6 mps 745 mmHg 31%
    16:00 +36°C° 0 mm 5 mps 745 mmHg 32%
    17:00 +35°C° 0 mm 4 mps 745 mmHg 34%
    18:00 +33°C° 0 mm 4 mps 745 mmHg 39%
    19:00 +30°C° 0 mm 3 mps 745 mmHg 45%
    20:00 +28°C° 0 mm 2 mps 746 mmHg 50%
    21:00 +28°C° 0 mm 3 mps 745 mmHg 47%
    22:00 +28°C° 0 mm 3 mps 745 mmHg 44%
    23:00 +28°C° 0 mm 3 mps 745 mmHg 40%

    Day after tomorrow, 18 September, Wednesday

    Time Temperature Precipitation Wind Pressure Humidity
    00:00 +28°C° 0 mm 4 mps 745 mmHg 40%
    01:00 +28°C° 0 mm 4 mps 745 mmHg 39%
    02:00 +28°C° 0 mm 5 mps 745 mmHg 39%
    03:00 +28°C° 0 mm 5 mps 745 mmHg 41%
    04:00 +27°C° 0 mm 5 mps 745 mmHg 43%
    05:00 +26°C° 0 mm 5 mps 745 mmHg 45%
    06:00 +28°C° 0 mm 5 mps 746 mmHg 41%
    07:00 +32°C° 0 mm 5 mps 746 mmHg 36%
    08:00 +34°C° 0 mm 6 mps 747 mmHg 32%
    09:00 +35°C° 0 mm 6 mps 747 mmHg 30%
    10:00 +38°C° 0 mm 6 mps 747 mmHg 29%
    11:00 +39°C° 0 mm 6 mps 747 mmHg 27%
    12:00 +40°C° 0 mm 6 mps 746 mmHg 28%
    13:00 +40°C° 0 mm 6 mps 746 mmHg 28%
    14:00 +41°C° 0 mm 6 mps 745 mmHg 28%
    15:00 +40°C° 0 mm 6 mps 745 mmHg 29%
    16:00 +39°C° 0 mm 5 mps 745 mmHg 30%
    17:00 +38°C° 0 mm 4 mps 745 mmHg 31%
    18:00 +36°C° 0 mm 4 mps 745 mmHg 33%
    19:00 +34°C° 0 mm 4 mps 746 mmHg 36%
    20:00 +33°C° 0 mm 3 mps 746 mmHg 38%
    21:00 +32°C° 0 mm 4 mps 746 mmHg 37%
    22:00 +32°C° 0 mm 4 mps 746 mmHg 36%
    23:00 +30°C° 0 mm 4 mps 746 mmHg 35%

    19 September, Thursday

    Time Temperature Precipitation Wind Pressure Humidity
    00:00 +30°C° 0 mm 4 mps 746 mmHg 36%
    01:00 +29°C° 0 mm 4 mps 745 mmHg 37%
    02:00 +28°C° 0 mm 3 mps 745 mmHg 37%
    03:00 +28°C° 0 mm 4 mps 745 mmHg 39%
    04:00 +27°C° 0 mm 4 mps 745 mmHg 41%
    05:00 +27°C° 0 mm 5 mps 745 mmHg 42%
    06:00 +30°C° 0 mm 4 mps 745 mmHg 36%
    07:00 +34°C° 0 mm 4 mps 746 mmHg 30%
    08:00 +36°C° 0 mm 4 mps 746 mmHg 23%
    09:00 +39°C° 0 mm 5 mps 746 mmHg 21%
    10:00 +41°C° 0 mm 5 mps 746 mmHg 19%
    11:00 +45°C° 0 mm 6 mps 746 mmHg 18%
    12:00 +44°C° 0 mm 7 mps 745 mmHg 20%
    13:00 +44°C° 0 mm 7 mps 745 mmHg 23%
    14:00 +44°C° 0 mm 8 mps 744 mmHg 26%
    15:00 +43°C° 0 mm 7 mps 744 mmHg 26%
    16:00 +42°C° 0 mm 6 mps 744 mmHg 26%
    17:00 +41°C° 0 mm 5 mps 744 mmHg 25%
    18:00 +38°C° 0 mm 4 mps 744 mmHg 28%
    19:00 +36°C° 0 mm 4 mps 744 mmHg 30%
    20:00 +34°C° 0 mm 3 mps 745 mmHg 33%
    21:00 +33°C° 0 mm 4 mps 745 mmHg 33%
    22:00 +33°C° 0 mm 4 mps 745 mmHg 33%
    23:00 +32°C° 0 mm 5 mps 745 mmHg 34%

    20 September, Friday

    Time Temperature Precipitation Wind Pressure Humidity
    00:00 +32°C° 0 mm 5 mps 744 mmHg 33%
    01:00 +30°C° 0 mm 5 mps 744 mmHg 32%
    02:00 +30°C° 0 mm 4 mps 744 mmHg 31%
    03:00 +29°C° 0 mm 5 mps 744 mmHg 40%
    04:00 +28°C° 0 mm 5 mps 744 mmHg 49%
    05:00 +26°C° 0 mm 5 mps 744 mmHg 58%
    06:00 +29°C° 0 mm 5 mps 744 mmHg 49%
    07:00 +32°C° 0 mm 4 mps 745 mmHg 41%
    08:00 +35°C° 0 mm 4 mps 745 mmHg 33%
    09:00 +37°C° 0 mm 4 mps 745 mmHg 28%
    10:00 +40°C° 0 mm 5 mps 745 mmHg 24%
    11:00 +43°C° 0 mm 5 mps 745 mmHg 20%
    12:00 +44°C° 0 mm 6 mps 744 mmHg 22%
    13:00 +44°C° 0 mm 6 mps 744 mmHg 24%
    14:00 +44°C° 0 mm 6 mps 744 mmHg 25%
    15:00 +42°C° 0 mm 6 mps 743 mmHg 28%
    16:00 +41°C° 0 mm 5 mps 743 mmHg 30%
    17:00 +40°C° 0 mm 5 mps 743 mmHg 32%
    18:00 +37°C° 0 mm 5 mps 744 mmHg 35%
    19:00 +35°C° 0 mm 5 mps 744 mmHg 37%
    20:00 +33°C° 0 mm 5 mps 744 mmHg 40%
    21:00 +32°C° 0 mm 5 mps 744 mmHg 38%
    22:00 +32°C° 0 mm 5 mps 744 mmHg 37%
    23:00 +32°C° 0 mm 5 mps 744 mmHg 36%

    21 September, Saturday

    Time Temperature Precipitation Wind Pressure Humidity
    00:00 +30°C° 0 mm 5 mps 744 mmHg 37%
    01:00 +29°C° 0 mm 5 mps 743 mmHg 38%
    02:00 +28°C° 0 mm 5 mps 743 mmHg 39%
    03:00 +28°C° 0 mm 5 mps 743 mmHg 40%
    04:00 +28°C° 0 mm 6 mps 744 mmHg 41%
    05:00 +27°C° 0 mm 6 mps 744 mmHg 43%
    06:00 +29°C° 0 mm 6 mps 744 mmHg 38%
    07:00 +32°C° 0 mm 6 mps 744 mmHg 34%
    08:00 +34°C° 0 mm 6 mps 745 mmHg 30%
    09:00 +35°C° 0 mm 6 mps 745 mmHg 28%
    10:00 +38°C° 0 mm 7 mps 745 mmHg 26%
    11:00 +39°C° 0 mm 7 mps 745 mmHg 23%
    12:00 +40°C° 0 mm 8 mps 744 mmHg 23%
    13:00 +40°C° 0 mm 8 mps 744 mmHg 23%
    14:00 +41°C° 0 mm 8 mps 743 mmHg 23%
    15:00 +40°C° 0 mm 8 mps 743 mmHg 24%
    16:00 +39°C° 0 mm 8 mps 743 mmHg 24%
    17:00 +38°C° 0 mm 7 mps 743 mmHg 25%
    18:00 +35°C° 0 mm 7 mps 743 mmHg 27%
    19:00 +33°C° 0 mm 6 mps 744 mmHg 30%
    20:00 +30°C° 0 mm 5 mps 744 mmHg 32%
    21:00 +30°C° 0 mm 5 mps 744 mmHg 30%
    22:00 +29°C° 0 mm 5 mps 744 mmHg 28%
    23:00 +29°C° 0 mm 5 mps 744 mmHg 26%
    Show more